Flight Track Log - Related Links

Times and Time Zones

All times are in EDT time to prevent confusion due to time zone crossing. See the N682RW flight status page for this flight to view local times or setup timezone preferences in your user account.

Time Position Orientation Groundspeed Altitude Reporting Facility
EDT Latitude Longitude Course Direction KTS MPH feet Rate Location/Type
Thu 09:45:46 PM 38.9667 -77.5167 288° West 209 241 2,400  Level Potomac TRACON
Thu 09:47:18 PM 39.0658 -77.5753 335° Northwest 265 305 7,300 3,079 Climbing Washington Center
Thu 09:48:18 PM 39.1217 -77.6089 335° Northwest 260 299 10,200 2,182 Climbing Washington Center
Thu 09:49:19 PM 39.1981 -77.6539 335° Northwest 267 307 11,700 2,331 Climbing Washington Center
Thu 09:50:19 PM 39.2867 -77.7100 334° Northwest 311 358 14,900 2,898 Climbing Washington Center
Thu 09:51:00 PM 39.4536 -77.5977 288° West  Level FlightAware Approximate
Thu 09:51:17 PM 39.3775 -77.7636 335° Northwest 340 391 17,400  Level Washington Center
Thu 09:52:17 PM 39.4700 -77.8203 335° Northwest 356 410 19,600 2,102 Climbing Washington Center
Thu 09:54:34 PM 39.6081 -78.0825 304° West 371 427 24,300 2,010 Climbing Cleveland Center
Thu 09:55:34 PM 39.6467 -78.2214 290° West 393 452 26,200 1,800 Climbing Cleveland Center
Thu 09:56:34 PM 39.6889 -78.3603 292° West 404 465 27,900 1,700 Climbing Cleveland Center
Thu 09:57:34 PM 39.7292 -78.5019 290° West 416 479 29,600 1,700 Climbing Cleveland Center
Thu 09:58:34 PM 39.7669 -78.6250 292° West 416 479 31,300 1,750 Climbing Cleveland Center
Thu 09:59:34 PM 39.8047 -78.7725 288° West 410 472 33,100 1,350 Climbing Cleveland Center
Thu 10:00:34 PM 39.8422 -78.9042 290° West 397 457 34,000 450 Climbing Cleveland Center
Thu 10:01:34 PM 39.8836 -79.0328 293° West 391 450 34,000  Level Cleveland Center
Thu 10:02:34 PM 39.9208 -79.1619 291° West 385 443 34,000  Level Cleveland Center
Thu 10:03:34 PM 39.9556 -79.2939 289° West 385 443 34,000  Level Cleveland Center
Thu 10:04:34 PM 40.0069 -79.4175 299° West 385 443 34,000  Level Cleveland Center
Thu 10:05:34 PM 40.0644 -79.5306 304° West 385 443 34,000  Level Cleveland Center
Thu 10:06:34 PM 40.1239 -79.6464 304° West 385 443 34,000  Level Cleveland Center
Thu 10:07:34 PM 40.1831 -79.7625 304° West 385 443 34,000  Level Cleveland Center
Thu 10:08:34 PM 40.2400 -79.8758 303° West 385 443 34,000  Level Cleveland Center
Thu 10:09:34 PM 40.2992 -79.9925 304° West 385 443 34,000 -50 Level Cleveland Center
Thu 10:10:34 PM 40.3558 -80.1117 302° West 385 443 33,900 -550 Descending Cleveland Center
Thu 10:11:34 PM 40.4147 -80.2286 304° West 385 443 32,900 -1,000 Descending Cleveland Center
Thu 10:12:34 PM 40.4714 -80.3456 303° West 385 443 31,900 -950 Descending Cleveland Center
Thu 10:13:34 PM 40.5300 -80.4519 306° West 390 449 31,000 -850 Descending Cleveland Center
Thu 10:14:34 PM 40.5903 -80.5722 303° West 396 456 30,200 -500 Descending Cleveland Center
Thu 10:15:34 PM 40.6508 -80.6981 302° West 402 463 30,000 -100 Descending Cleveland Center
Thu 10:16:34 PM 40.7131 -80.8186 304° West 402 463 30,000  Level Cleveland Center
Thu 10:17:34 PM 40.7733 -80.9422 303° West 402 463 30,000  Level Cleveland Center
Thu 10:18:34 PM 40.8333 -81.0689 302° West 402 463 30,000  Level Cleveland Center
Thu 10:19:34 PM 40.8931 -81.1956 302° West 413 475 30,000 -300 Level Cleveland Center
Thu 10:20:34 PM 40.9611 -81.3364 303° West 413 475 29,400 -750 Descending Cleveland Center
Thu 10:21:34 PM 41.0228 -81.4639 303° West 413 475 28,500 -800 Descending Cleveland Center
Thu 10:22:34 PM 41.0842 -81.5886 303° West 407 468 27,800 -800 Descending Cleveland Center
Thu 10:23:34 PM 41.1394 -81.6969 304° West 406 467 26,900 -950 Descending Cleveland Center
Thu 10:24:34 PM 41.1967 -81.8139 303° West 395 455 25,900 -1,000 Descending Cleveland Center
Thu 10:25:34 PM 41.2494 -81.9308 301° West 385 443 24,900 -900 Descending Cleveland Center
Thu 10:26:34 PM 41.3064 -82.0425 304° West 380 437 24,100 -900 Descending Cleveland Center
Thu 10:27:34 PM 41.3569 -82.1628 299° West 370 426 23,100 -1,350 Descending Cleveland Center
Thu 10:28:34 PM 41.4222 -82.2722 309° West 370 426 21,400 -2,000 Descending Cleveland Center
Thu 10:29:34 PM 41.4853 -82.3792 308° West 370 426 19,100 -2,258 Descending Cleveland Center
Thu 10:30:07 PM 41.5258 -82.4414 311° West 366 421 17,900 -2,100 Descending Cleveland Center
Thu 10:30:34 PM 41.5542 -82.4922 307° West 370 426 17,000 -2,182 Descending Cleveland Center
Thu 10:31:13 PM 41.5947 -82.5600 309° West 348 400 15,500 -2,100 Descending Cleveland Center
Thu 10:31:34 PM 41.6108 -82.5883 307° West 359 413 14,900 -2,066 Descending Cleveland Center
Thu 10:32:14 PM 41.6536 -82.6564 310° West 337 388 13,400 -2,200 Descending Cleveland Center
Thu 10:32:34 PM 41.6694 -82.6903 302° West 347 399 12,700 -1,377 Descending Cleveland Center
Thu 10:33:15 PM 41.7100 -82.7556 310° West 332 382 12,000 -700 Descending Cleveland Center
Thu 10:33:34 PM 41.7283 -82.7839 311° West 342 394 12,000  Level Cleveland Center
Thu 10:34:15 PM 41.7750 -82.8411 318° Northwest 334 384 12,000  Level Cleveland Center
Thu 10:34:34 PM 41.7956 -82.8669 317° Northwest 332 382 12,000  Level Cleveland Center
Thu 10:35:28 PM 41.8586 -82.9444 318° Northwest 332 382 12,000 -350 Level Cleveland Center
Thu 10:36:17 PM 41.9181 -82.9886 331° Northwest 293 337 11,400 -1,000 Descending Cleveland Center
Thu 10:36:34 PM 41.9389 -82.9894 358° North 305 351 10,900 -1,636 Descending Cleveland Center
Thu 10:37:23 PM 42.0072 -83.0117 346° North 295 339 9,600 -1,636 Descending Cleveland Center
Thu 10:38:24 PM 42.0839 -83.0369 346° North 288 331 7,900 -1,377 Descending Cleveland Center
Thu 10:39:25 PM 42.1603 -83.0650 345° North 274 315 6,800 -1,339 Descending Cleveland Center
Thu 10:40:25 PM 42.2286 -83.0900 345° North 236 272 5,200 -1,670 Descending Cleveland Center
Thu 10:41:20 PM 42.2844 -83.1036 350° North 239 275 3,600 -1,031 Descending Cleveland Center
Thu 10:42:33 PM 42.3350 -83.1731 315° West 198 228 3,000 -298 Descending Cleveland Center
Thu 10:43:21 PM 42.3381 -83.2264 274° West 176 203 3,000 -220 Level Cleveland Center
Thu 10:44:22 PM 42.3058 -83.2728 227° Southwest 143 165 2,600 -545 Descending Cleveland Center
Thu 10:45:22 PM 42.2761 -83.2969 211° Southwest 128 147 1,900 -694 Descending Cleveland Center
Thu 10:46:23 PM 42.2442 -83.3181 206° Southwest 121 139 1,200 -689 Descending Cleveland Center
Thu 10:48:00 PM 42.2124 -83.3534 323° Northwest  Level Estimated

Login

Don't have an account? Register now (free) for customized features, flight alerts, and more!